Simultaneous Nadir Overpasses (SNOs) Predictions

Prediction of SNOs between AURA and NPP Satellite Orbit:

Table of predicted SNOs for the next 14.0 days since TLE Epoch: 5/6/2018
Index Date (AURA) Time (AURA) Lat,Lon (AURA) SZA (AURA ) Date (NPP) Time (NPP) Lat,Lon (NPP) SZA (NPP ) Distance(km) Time Diff (sec)
1 05/09/2018 03:42:00 79.48, 21.17 75.23 05/09/2018 03:41:26 79.48, 21.29 75.23 2.41 34
2 05/09/2018 04:31:22 -79.66,-169.88 105.06 05/09/2018 04:32:06 -79.66,-169.87 105.09 0.29 44
3 05/11/2018 19:58:28 79.50, 137.21 74.51 05/11/2018 19:58:21 79.50, 137.18 74.52 0.81 7
4 05/11/2018 20:47:48 -79.76, -53.27 105.90 05/11/2018 20:48:58 -79.77, -53.12 105.98 3.12 70
5 05/14/2018 11:25:34 -79.37, 84.55 105.95 05/14/2018 11:24:36 -79.37, 84.59 105.91 0.83 58
6 05/14/2018 12:14:53 79.63,-105.99 73.66 05/14/2018 12:15:12 79.64,-105.84 73.62 3.10 19
7 05/17/2018 03:42:01 -79.42,-159.22 106.63 05/17/2018 03:41:30 -79.41,-159.28 106.60 1.47 31
8 05/17/2018 04:31:20 79.68, 10.24 72.98 05/17/2018 04:32:06 79.68, 10.30 72.94 1.30 46
9 05/19/2018 19:58:27 -79.46, -43.02 107.27 05/19/2018 19:58:23 -79.45, -43.16 107.24 3.03 4




NCC Satellite Simultaneous Nadir Overpasses (SNOs) Prediction Service
